GW4412 Weather Reports


Display with metric or nautical units.
time (UTC)temp
F
wind
direction
speed
MPH
gust
MPH
rain 1hr
in
rain 24hr
in
rain mn
in
humidity
%
barometer
mb
20260504033012 38 36 0.0 0.0 0.00 0.00 0.00 87 1019.0
20260504032512 37 114 0.0 0.0 0.00 0.00 0.00 87 1019.0
20260504032012 37 142 0.0 0.0 0.00 0.00 0.00 87 1019.0
20260504031513 37 142 0.0 0.0 0.00 0.00 0.00 86 1019.0
20260504031013 38 216 0.0 0.0 0.00 0.00 0.00 86 1019.0
20260504030512 38 278 0.0 0.0 0.00 0.00 0.00 86 1019.0
20260504030013 38 240 0.0 0.0 0.00 0.00 0.00 86 1019.0
20260504025512 38 120 0.0 0.0 0.00 0.00 0.00 86 1019.0
20260504025012 39 289 0.0 0.0 0.00 0.00 0.00 85 1019.0
20260504024512 39 96 0.0 0.0 0.00 0.00 0.00 85 1019.0
20260504024012 39 36 0.0 0.0 0.00 0.00 0.00 85 1019.0
20260504023512 39 356 0.0 0.0 0.00 0.00 0.00 85 1019.0
20260504023012 39 48 0.0 0.0 0.00 0.00 0.00 85 1019.0
20260504022513 39 180 0.0 0.0 0.00 0.00 0.00 86 1019.0
20260504022012 39 18 0.0 0.0 0.00 0.00 0.00 86 1019.0
20260504021513 39 42 0.0 0.0 0.00 0.00 0.00 86 1019.0
20260504021012 39 290 3.0 3.0 0.00 0.00 0.00 85 1019.0
20260504020512 39 204 0.0 0.0 0.00 0.00 0.00 85 1019.0
20260504020012 39 294 0.0 0.0 0.00 0.00 0.00 85 1019.0
20260504015512 39 144 0.0 0.0 0.00 0.00 0.00 86 1019.0
20260504015012 38 91 0.0 0.0 0.00 0.00 0.00 87 1019.0
20260504014512 38 264 0.0 0.0 0.00 0.00 0.00 87 1019.0
20260504014013 38 180 0.0 0.0 0.00 0.00 0.00 86 1019.0
20260504013512 39 186 0.0 0.0 0.00 0.00 0.00 86 1019.0
20260504013012 39 264 0.0 0.0 0.00 0.00 0.00 86 1019.0
20260504012512 39 258 0.0 0.0 0.00 0.00 0.00 86 1019.0
20260504012012 39 36 0.0 0.0 0.00 0.00 0.00 86 1019.0
20260504011513 39 258 0.0 0.0 0.00 0.00 0.00 86 1019.0
20260504011012 40 270 0.0 0.0 0.00 0.00 0.00 85 1019.0
20260504010513 40 279 0.0 0.0 0.00 0.00 0.00 85 1019.0
20260504010012 40 279 0.0 0.0 0.00 0.00 0.00 85 1019.0
20260504005512 40 270 0.0 0.0 0.00 0.00 0.00 85 1019.0
20260504005012 40 168 0.0 0.0 0.00 0.00 0.00 84 1019.0
20260504004513 40 6 0.0 0.0 0.00 0.00 0.00 84 1019.0
20260504004013 40 0 0.0 0.0 0.00 0.00 0.00 83 1019.0
20260504003512 41 309 0.0 0.0 0.00 0.00 0.00 82 1019.0
20260504003012 41 132 0.0 0.0 0.00 0.00 0.00 82 1019.0
20260504002515 41 108 0.0 0.0 0.00 0.00 0.00 83 1019.0
20260504002013 41 108 0.0 0.0 0.00 0.00 0.00 83 1019.0
20260504001512 40 108 0.0 0.0 0.00 0.00 0.00 83 1019.0
20260504001012 41 108 0.0 0.0 0.00 0.00 0.00 83 1019.0
20260504000512 41 48 0.0 0.0 0.00 0.00 0.00 84 1019.0
20260503151012 55 266 6.0 6.0 0.00 0.00 0.18 53 1018.0
20260503150512 55 317 0.0 0.0 0.00 0.00 0.18 57 1018.0
20260503131012 51 348 3.0 3.0 0.06 0.00 0.18 77 1019.0
20260503130512 51 322 2.0 2.0 0.00 0.00 0.17 72 1019.0
20260503110512 49 174 0.0 0.0 0.00 0.00 0.16 73 1019.0
20260503044013 47 162 0.0 0.0 0.00 0.00 0.00 74 1017.0
20260503043512 47 98 0.0 0.0 0.00 0.00 0.00 74 1017.0
20260503043013 47 96 0.0 0.0 0.00 0.00 0.00 75 1017.0
20260503042512 47 84 2.0 2.0 0.00 0.00 0.00 74 1017.0
20260503042013 48 261 0.0 0.0 0.00 0.00 0.00 75 1017.0
20260503041512 48 91 0.0 0.0 0.00 0.00 0.00 73 1017.0
20260503041013 48 354 0.0 0.0 0.00 0.00 0.00 72 1017.0
20260503040512 49 327 0.0 0.0 0.00 0.00 0.00 70 1017.0
20260503040013 49 72 0.0 0.0 0.00 0.00 0.00 66 1017.0
20260503035514 49 20 4.0 4.0 0.00 0.00 0.00 67 1017.0
20260503035013 48 120 0.0 0.0 0.00 0.00 0.00 68 1017.0
20260503034517 48 208 3.0 3.0 0.00 0.00 0.00 68 1017.0
20260503034012 47 350 0.0 0.0 0.00 0.00 0.00 68 1017.0
20260503033512 47 332 0.0 0.0 0.00 0.00 0.00 70 1017.0